| time (UTC) | temp C | wind direction | speed KPH | gust KPH | rain 1hr cm | rain 24hr cm | rain mn cm | humidity % | barometer mb |
| 20260506092309 | 13 | 52 | 3.2 | 4.8 | 0.00 | 0.00 | 0.00 | 80 | 1002.6 |
| 20260506091806 | 12 | 49 | 3.2 | 3.2 | 0.00 | 0.00 | 0.00 | 80 | 1002.6 |
| 20260506091555 | 13 | 71 | 0.0 | 3.2 | 0.00 | 0.00 | 0.00 | 81 | 1001.1 |
| 20260506091304 | 13 | 34 | 0.0 | 1.6 | 0.00 | 0.00 | 0.00 | 81 | 1002.7 |
| 20260506090802 | 13 | 55 | 3.2 | 3.2 | 0.00 | 0.00 | 0.00 | 81 | 1002.6 |
| 20260506090258 | 13 | 48 | 3.2 | 3.2 | 0.00 | 0.00 | 0.00 | 81 | 1002.6 |
| 20260506090055 | 13 | 76 | 0.0 | 1.6 | 0.00 | 0.00 | 0.00 | 81 | 1001.0 |
| 20260506085755 | 13 | 55 | 3.2 | 4.8 | 0.00 | 0.00 | 0.00 | 81 | 1002.7 |
| 20260506085251 | 13 | 72 | 3.2 | 3.2 | 0.00 | 0.00 | 0.00 | 81 | 1002.8 |
| 20260506084748 | 13 | 71 | 3.2 | 4.8 | 0.00 | 0.00 | 0.00 | 80 | 1002.6 |
| 20260506084556 | 13 | 76 | 0.0 | 1.6 | 0.00 | 0.00 | 0.00 | 81 | 1001.1 |
| 20260506084244 | 12 | 74 | 3.2 | 4.8 | 0.00 | 0.00 | 0.00 | 80 | 1002.7 |
| 20260506083741 | 12 | 66 | 3.2 | 3.2 | 0.00 | 0.00 | 0.00 | 81 | 1002.9 |
| 20260506083239 | 12 | 54 | 3.2 | 4.8 | 0.00 | 0.00 | 0.00 | 81 | 1002.8 |
| 20260506082736 | 12 | 72 | 1.6 | 4.8 | 0.00 | 0.00 | 0.00 | 81 | 1003.0 |
| 20260506082232 | 12 | 48 | 3.2 | 4.8 | 0.00 | 0.00 | 0.00 | 81 | 1003.1 |
| 20260506081730 | 12 | 50 | 3.2 | 4.8 | 0.00 | 0.00 | 0.00 | 81 | 1003.0 |
| 20260506081556 | 12 | 153 | 0.0 | 1.6 | 0.00 | 0.00 | 0.00 | 81 | 1001.3 |
| 20260506081227 | 12 | 36 | 1.6 | 4.8 | 0.00 | 0.00 | 0.00 | 81 | 1003.0 |
| 20260506080725 | 12 | 59 | 3.2 | 3.2 | 0.00 | 0.00 | 0.00 | 82 | 1002.9 |
| 20260506080221 | 12 | 48 | 1.6 | 4.8 | 0.00 | 0.00 | 0.00 | 82 | 1002.7 |
| 20260506073205 | 12 | 48 | 3.2 | 4.8 | 0.00 | 0.00 | 0.00 | 80 | 1002.7 |
| 20260506073056 | 12 | 228 | 0.0 | 0.0 | 0.00 | 0.00 | 0.00 | 80 | 1001.2 |
| 20260506072702 | 12 | 40 | 0.0 | 3.2 | 0.00 | 0.00 | 0.00 | 80 | 1002.9 |
| 20260506072159 | 12 | 65 | 3.2 | 4.8 | 0.00 | 0.00 | 0.00 | 80 | 1002.8 |
| 20260506071657 | 12 | 45 | 0.0 | 3.2 | 0.00 | 0.00 | 0.00 | 80 | 1003.0 |
| 20260506071155 | 12 | 54 | 3.2 | 3.2 | 0.00 | 0.00 | 0.00 | 79 | 1003.1 |
| 20260506070651 | 12 | 40 | 0.0 | 4.8 | 0.00 | 0.00 | 0.00 | 79 | 1003.2 |
| 20260506070148 | 12 | 53 | 3.2 | 3.2 | 0.00 | 0.00 | 0.00 | 79 | 1003.4 |
| 20260506062125 | 12 | 50 | 1.6 | 3.2 | 0.00 | 0.00 | 0.00 | 79 | 1003.7 |
| 20260506061621 | 12 | 61 | 3.2 | 3.2 | 0.00 | 0.00 | 0.00 | 79 | 1003.9 |
| 20260506061555 | 13 | 228 | 0.0 | 0.0 | 0.00 | 0.00 | 0.00 | 79 | 1001.9 |
| 20260506061119 | 12 | 51 | 3.2 | 3.2 | 0.00 | 0.00 | 0.00 | 79 | 1003.7 |
| 20260506060617 | 12 | 55 | 3.2 | 3.2 | 0.00 | 0.00 | 0.00 | 79 | 1003.6 |
| 20260506060114 | 12 | 52 | 3.2 | 3.2 | 0.00 | 0.00 | 0.00 | 79 | 1003.7 |
| 20260506051046 | 13 | 34 | 1.6 | 1.6 | 0.00 | 0.00 | 0.00 | 76 | 1004.3 |
| 20260506050544 | 13 | 59 | 1.6 | 3.2 | 0.00 | 0.00 | 0.00 | 76 | 1004.4 |
| 20260506045034 | 13 | 63 | 3.2 | 3.2 | 0.00 | 0.00 | 0.00 | 76 | 1004.2 |
| 20260506044555 | 13 | 228 | 0.0 | 0.0 | 0.00 | 0.00 | 0.00 | 75 | 1002.4 |
| 20260506044532 | 13 | 86 | 3.2 | 4.8 | 0.00 | 0.00 | 0.00 | 75 | 1004.2 |
| 20260506044029 | 13 | 46 | 1.6 | 1.6 | 0.00 | 0.00 | 0.00 | 75 | 1004.0 |
| 20260506043526 | 13 | 67 | 0.0 | 3.2 | 0.00 | 0.00 | 0.00 | 73 | 1003.9 |
| 20260506043024 | 13 | 32 | 0.0 | 3.2 | 0.00 | 0.00 | 0.00 | 73 | 1004.1 |
| 20260506042523 | 13 | 56 | 4.8 | 4.8 | 0.00 | 0.00 | 0.00 | 73 | 1004.0 |
| 20260506042021 | 14 | 60 | 3.2 | 3.2 | 0.00 | 0.00 | 0.00 | 72 | 1004.0 |
| 20260506041519 | 13 | 61 | 3.2 | 3.2 | 0.00 | 0.00 | 0.00 | 72 | 1004.2 |
| 20260506041015 | 13 | 67 | 3.2 | 3.2 | 0.00 | 0.00 | 0.00 | 73 | 1004.1 |
| 20260506040514 | 13 | 50 | 1.6 | 3.2 | 0.00 | 0.00 | 0.00 | 73 | 1004.1 |
| 20260506040055 | 14 | 228 | 0.0 | 0.0 | 0.00 | 0.00 | 0.00 | 72 | 1002.4 |
| 20260506040009 | 13 | 48 | 3.2 | 3.2 | 0.00 | 0.00 | 0.00 | 73 | 1004.2 |
| 20260506035506 | 13 | 71 | 3.2 | 3.2 | 0.00 | 0.00 | 0.00 | 73 | 1004.2 |
| 20260506035003 | 13 | 51 | 3.2 | 3.2 | 0.00 | 0.00 | 0.00 | 73 | 1004.3 |
| 20260506034555 | 14 | 228 | 0.0 | 0.0 | 0.00 | 0.00 | 0.00 | 72 | 1002.5 |
| 20260506034500 | 13 | 71 | 1.6 | 3.2 | 0.00 | 0.00 | 0.00 | 73 | 1004.1 |
| 20260506033957 | 13 | 46 | 3.2 | 3.2 | 0.00 | 0.00 | 0.00 | 72 | 1004.2 |
| 20260506033455 | 13 | 38 | 3.2 | 3.2 | 0.00 | 0.00 | 0.00 | 72 | 1004.1 |
| 20260506033056 | 15 | 228 | 0.0 | 0.0 | 0.00 | 0.00 | 0.00 | 70 | 1002.4 |
| 20260506032951 | 14 | 56 | 3.2 | 4.8 | 0.00 | 0.00 | 0.00 | 71 | 1004.1 |
| 20260506032449 | 14 | 58 | 3.2 | 4.8 | 0.00 | 0.00 | 0.00 | 71 | 1004.2 |
| 20260506031945 | 14 | 53 | 3.2 | 3.2 | 0.00 | 0.00 | 0.00 | 71 | 1004.1 |
| 20260506031556 | 15 | 228 | 0.0 | 0.0 | 0.00 | 0.00 | 0.00 | 69 | 1002.3 |
| 20260506031442 | 14 | 58 | 3.2 | 4.8 | 0.00 | 0.00 | 0.00 | 70 | 1003.8 |
| 20260506030940 | 15 | 43 | 3.2 | 3.2 | 0.00 | 0.00 | 0.00 | 70 | 1004.2 |
| 20260506030438 | 15 | 45 | 1.6 | 4.8 | 0.00 | 0.00 | 0.00 | 69 | 1004.1 |
| 20260506030056 | 16 | 228 | 0.0 | 0.0 | 0.00 | 0.00 | 0.00 | 67 | 1002.3 |
| 20260506025934 | 15 | 64 | 3.2 | 4.8 | 0.00 | 0.00 | 0.00 | 69 | 1004.1 |
| 20260506025431 | 15 | 53 | 3.2 | 3.2 | 0.00 | 0.00 | 0.00 | 68 | 1004.0 |
| 20260506024928 | 15 | 52 | 1.6 | 4.8 | 0.00 | 0.00 | 0.00 | 67 | 1004.1 |
| 20260506024556 | 16 | 228 | 0.0 | 0.0 | 0.00 | 0.00 | 0.00 | 65 | 1002.3 |
| 20260506024425 | 15 | 41 | 3.2 | 3.2 | 0.00 | 0.00 | 0.00 | 66 | 1004.0 |
| 20260506023920 | 15 | 56 | 3.2 | 3.2 | 0.00 | 0.00 | 0.00 | 65 | 1004.1 |
| 20260506023418 | 15 | 77 | 0.0 | 3.2 | 0.00 | 0.00 | 0.00 | 65 | 1004.1 |
| 20260506023055 | 16 | 228 | 0.0 | 1.6 | 0.00 | 0.00 | 0.00 | 64 | 1002.3 |
| 20260506022914 | 16 | 46 | 1.6 | 3.2 | 0.00 | 0.00 | 0.00 | 65 | 1004.0 |
| 20260506022412 | 16 | 49 | 3.2 | 3.2 | 0.00 | 0.00 | 0.00 | 64 | 1004.1 |
| 20260506021910 | 16 | 45 | 3.2 | 4.8 | 0.00 | 0.00 | 0.00 | 64 | 1004.1 |
| 20260506021555 | 17 | 228 | 0.0 | 1.6 | 0.00 | 0.00 | 0.00 | 62 | 1002.3 |
| 20260506021407 | 16 | 57 | 1.6 | 3.2 | 0.00 | 0.00 | 0.00 | 64 | 1004.1 |
| 20260506020903 | 16 | 33 | 3.2 | 3.2 | 0.00 | 0.00 | 0.00 | 63 | 1003.9 |
| 20260506020402 | 16 | 48 | 3.2 | 3.2 | 0.00 | 0.00 | 0.00 | 62 | 1004.1 |
| 20260506015859 | 17 | 63 | 3.2 | 3.2 | 0.00 | 0.00 | 0.00 | 61 | 1003.9 |
| 20260506015356 | 17 | 55 | 3.2 | 3.2 | 0.00 | 0.00 | 0.00 | 61 | 1004.0 |
| 20260506014853 | 17 | 58 | 3.2 | 3.2 | 0.00 | 0.00 | 0.00 | 60 | 1003.9 |
| 20260506014556 | 18 | 228 | 0.0 | 0.0 | 0.00 | 0.00 | 0.00 | 57 | 1002.3 |
| 20260506014350 | 17 | 45 | 3.2 | 3.2 | 0.00 | 0.00 | 0.00 | 59 | 1003.9 |
| 20260506013846 | 17 | 60 | 1.6 | 3.2 | 0.00 | 0.00 | 0.00 | 58 | 1003.9 |
| 20260506013344 | 17 | 49 | 3.2 | 3.2 | 0.00 | 0.00 | 0.00 | 57 | 1003.8 |
| 20260506013056 | 18 | 228 | 0.0 | 0.0 | 0.00 | 0.00 | 0.00 | 55 | 1002.2 |
| 20260506012840 | 18 | 37 | 3.2 | 3.2 | 0.00 | 0.00 | 0.00 | 56 | 1003.9 |
| 20260506012337 | 18 | 53 | 3.2 | 3.2 | 0.00 | 0.00 | 0.00 | 55 | 1004.0 |
| 20260506011834 | 18 | 63 | 1.6 | 3.2 | 0.00 | 0.00 | 0.00 | 53 | 1003.7 |
| 20260506011555 | 19 | 228 | 0.0 | 0.0 | 0.00 | 0.00 | 0.00 | 51 | 1002.1 |
| 20260506011331 | 18 | 44 | 3.2 | 3.2 | 0.00 | 0.00 | 0.00 | 53 | 1003.7 |
| 20260506010828 | 18 | 48 | 3.2 | 4.8 | 0.00 | 0.00 | 0.00 | 54 | 1003.6 |
| 20260506010326 | 18 | 62 | 3.2 | 3.2 | 0.00 | 0.00 | 0.00 | 53 | 1003.5 |
| 20260506010055 | 20 | 228 | 0.0 | 0.0 | 0.00 | 0.00 | 0.00 | 49 | 1001.9 |
| 20260506005823 | 19 | 46 | 1.6 | 3.2 | 0.00 | 0.00 | 0.00 | 51 | 1003.5 |
| 20260506005320 | 19 | 50 | 3.2 | 3.2 | 0.00 | 0.00 | 0.00 | 50 | 1003.5 |
| 20260506004816 | 20 | 54 | 1.6 | 3.2 | 0.00 | 0.00 | 0.00 | 47 | 1003.5 |
| 20260506004314 | 20 | 42 | 1.6 | 3.2 | 0.00 | 0.00 | 0.00 | 46 | 1003.1 |
| 20260506003809 | 20 | 53 | 3.2 | 3.2 | 0.00 | 0.00 | 0.00 | 46 | 1003.2 |
| 20260506003306 | 20 | 41 | 1.6 | 3.2 | 0.00 | 0.00 | 0.00 | 46 | 1003.3 |
| 20260506003055 | 21 | 228 | 0.0 | 1.6 | 0.00 | 0.00 | 0.00 | 44 | 1001.6 |
| 20260506002802 | 20 | 39 | 1.6 | 3.2 | 0.00 | 0.00 | 0.00 | 45 | 1003.4 |
| 20260506002259 | 20 | 24 | 0.0 | 3.2 | 0.00 | 0.00 | 0.00 | 44 | 1003.1 |
| 20260506001754 | 21 | 51 | 1.6 | 1.6 | 0.00 | 0.00 | 0.00 | 46 | 1003.4 |
| 20260506001555 | 21 | 228 | 0.0 | 1.6 | 0.00 | 0.00 | 0.00 | 44 | 1001.5 |
| 20260506001252 | 21 | 38 | 1.6 | 3.2 | 0.00 | 0.00 | 0.00 | 46 | 1003.4 |
| 20260506000749 | 21 | 55 | 0.0 | 1.6 | 0.00 | 0.00 | 0.00 | 44 | 1003.2 |
| 20260506000247 | 21 | 37 | 0.0 | 3.2 | 0.00 | 0.00 | 0.00 | 44 | 1003.2 |
| 20260506000055 | 21 | 228 | 0.0 | 1.6 | 0.00 | 0.00 | 0.00 | 42 | 1001.4 |
| 20260505235743 | 21 | 25 | 1.6 | 3.2 | 0.00 | 0.00 | 0.00 | 42 | 1003.1 |
| 20260505235241 | 21 | 37 | 0.0 | 1.6 | 0.00 | 0.00 | 0.00 | 41 | 1003.0 |
| 20260505234737 | 21 | 29 | 0.0 | 3.2 | 0.00 | 0.00 | 0.00 | 42 | 1003.2 |
| 20260505234555 | 22 | 228 | 0.0 | 4.8 | 0.00 | 0.00 | 0.00 | 41 | 1001.3 |
| 20260505234235 | 21 | 62 | 0.0 | 1.6 | 0.00 | 0.00 | 0.00 | 40 | 1002.9 |
| 20260505233731 | 22 | 269 | 0.0 | 3.2 | 0.00 | 0.00 | 0.00 | 40 | 1003.0 |
| 20260505233230 | 21 | 232 | 3.2 | 3.2 | 0.00 | 0.00 | 0.00 | 39 | 1003.0 |
| 20260505233055 | 22 | 233 | 1.6 | 3.2 | 0.00 | 0.00 | 0.00 | 40 | 1001.3 |
| 20260505232726 | 22 | 44 | 0.0 | 1.6 | 0.00 | 0.00 | 0.00 | 41 | 1002.8 |
| 20260505232224 | 22 | 253 | 1.6 | 1.6 | 0.00 | 0.00 | 0.00 | 40 | 1002.9 |
| 20260505231720 | 22 | 27 | 0.0 | 1.6 | 0.00 | 0.00 | 0.00 | 41 | 1003.0 |
| 20260505231219 | 22 | 68 | 1.6 | 3.2 | 0.00 | 0.00 | 0.00 | 39 | 1002.6 |
| 20260505230717 | 22 | 55 | 1.6 | 3.2 | 0.00 | 0.00 | 0.00 | 38 | 1002.6 |
| 20260505230213 | 22 | 81 | 0.0 | 3.2 | 0.00 | 0.00 | 0.00 | 36 | 1002.7 |
| 20260505230056 | 22 | 238 | 1.6 | 4.8 | 0.00 | 0.00 | 0.00 | 36 | 1001.1 |
| 20260505225710 | 22 | 225 | 3.2 | 3.2 | 0.00 | 0.00 | 0.00 | 39 | 1002.8 |
| 20260505225207 | 22 | 322 | 0.0 | 3.2 | 0.00 | 0.00 | 0.00 | 36 | 1002.7 |
| 20260505224702 | 23 | 269 | 0.0 | 3.2 | 0.00 | 0.00 | 0.00 | 37 | 1002.6 |
| 20260505224556 | 23 | 240 | 1.6 | 8.0 | 0.00 | 0.00 | 0.00 | 35 | 1000.9 |
| 20260505224200 | 23 | 230 | 3.2 | 4.8 | 0.00 | 0.00 | 0.00 | 36 | 1002.7 |
| 20260505223658 | 22 | 223 | 4.8 | 9.7 | 0.00 | 0.00 | 0.00 | 36 | 1002.6 |
| 20260505223153 | 23 | 224 | 4.8 | 4.8 | 0.00 | 0.00 | 0.00 | 38 | 1002.5 |
| 20260505223056 | 23 | 234 | 1.6 | 4.8 | 0.00 | 0.00 | 0.00 | 35 | 1000.8 |
| 20260505222649 | 23 | 246 | 1.6 | 1.6 | 0.00 | 0.00 | 0.00 | 37 | 1002.6 |
| 20260505222146 | 23 | 223 | 3.2 | 3.2 | 0.00 | 0.00 | 0.00 | 36 | 1002.3 |
| 20260505221643 | 23 | 242 | 6.4 | 6.4 | 0.00 | 0.00 | 0.00 | 35 | 1002.3 |
| 20260505221555 | 23 | 224 | 1.6 | 8.0 | 0.00 | 0.00 | 0.00 | 36 | 1000.6 |
| 20260505221139 | 23 | 225 | 6.4 | 11.3 | 0.00 | 0.00 | 0.00 | 36 | 1002.3 |
| 20260505220637 | 23 | 354 | 0.0 | 3.2 | 0.00 | 0.00 | 0.00 | 35 | 1002.4 |
| 20260505220135 | 23 | 254 | 3.2 | 6.4 | 0.00 | 0.00 | 0.00 | 35 | 1002.2 |
| 20260505220055 | 23 | 212 | 1.6 | 11.3 | 0.00 | 0.00 | 0.00 | 34 | 1000.6 |
| 20260505215632 | 23 | 267 | 6.4 | 8.0 | 0.00 | 0.00 | 0.00 | 35 | 1002.1 |
| 20260505215130 | 23 | 256 | 3.2 | 14.5 | 0.00 | 0.00 | 0.00 | 35 | 1002.3 |
| 20260505214628 | 23 | 355 | 0.0 | 3.2 | 0.00 | 0.00 | 0.00 | 35 | 1002.1 |
| 20260505214555 | 23 | 133 | 0.0 | 12.9 | 0.00 | 0.00 | 0.00 | 37 | 1000.5 |
| 20260505214125 | 23 | 249 | 4.8 | 20.9 | 0.00 | 0.00 | 0.00 | 34 | 1002.2 |
| 20260505213622 | 23 | 229 | 8.0 | 8.0 | 0.00 | 0.00 | 0.00 | 36 | 1002.1 |
| 20260505213119 | 23 | 255 | 0.0 | 16.1 | 0.00 | 0.00 | 0.00 | 37 | 1002.3 |
| 20260505213056 | 23 | 250 | 8.0 | 16.1 | 0.00 | 0.00 | 0.00 | 35 | 1000.4 |
| 20260505212615 | 23 | 269 | 0.0 | 6.4 | 0.00 | 0.00 | 0.00 | 37 | 1002.2 |
| 20260505212113 | 23 | 286 | 1.6 | 16.1 | 0.00 | 0.00 | 0.00 | 35 | 1002.1 |
| 20260505211609 | 23 | 214 | 8.0 | 8.0 | 0.00 | 0.00 | 0.00 | 36 | 1002.0 |
| 20260505211555 | 24 | 218 | 3.2 | 16.1 | 0.00 | 0.00 | 0.00 | 36 | 1000.3 |
| 20260505211106 | 23 | 269 | 0.0 | 11.3 | 0.00 | 0.00 | 0.00 | 37 | 1002.0 |
| 20260505210603 | 24 | 240 | 9.7 | 16.1 | 0.00 | 0.00 | 0.00 | 35 | 1002.1 |
| 20260505210100 | 24 | 345 | 3.2 | 14.5 | 0.00 | 0.00 | 0.00 | 35 | 1002.1 |
| 20260505210055 | 24 | 231 | 4.8 | 19.3 | 0.00 | 0.00 | 0.00 | 35 | 1000.2 |
| 20260505205558 | 24 | 250 | 9.7 | 16.1 | 0.00 | 0.00 | 0.00 | 35 | 1001.8 |
| 20260505205055 | 24 | 230 | 6.4 | 11.3 | 0.00 | 0.00 | 0.00 | 36 | 1001.9 |
| 20260505204552 | 25 | 222 | 9.7 | 16.1 | 0.00 | 0.00 | 0.00 | 35 | 1002.1 |
| 20260505204049 | 25 | 283 | 0.0 | 14.5 | 0.00 | 0.00 | 0.00 | 34 | 1001.8 |
| 20260505203546 | 25 | 222 | 8.0 | 19.3 | 0.00 | 0.00 | 0.00 | 32 | 1001.8 |
| 20260505203043 | 25 | 293 | 1.6 | 11.3 | 0.00 | 0.00 | 0.00 | 35 | 1001.7 |
| 20260505202539 | 25 | 242 | 1.6 | 4.8 | 0.00 | 0.00 | 0.00 | 35 | 1001.8 |
| 20260505202035 | 24 | 226 | 11.3 | 19.3 | 0.00 | 0.00 | 0.00 | 37 | 1001.9 |
| 20260505201554 | 23 | 197 | 8.0 | 22.5 | 0.00 | 0.00 | 0.00 | 34 | 1000.3 |
| 20260505201532 | 23 | 223 | 11.3 | 22.5 | 0.00 | 0.00 | 0.00 | 36 | 1002.0 |
| 20260505201030 | 23 | 244 | 9.7 | 24.1 | 0.00 | 0.00 | 0.00 | 37 | 1001.9 |
| 20260505200527 | 23 | 44 | 0.0 | 19.3 | 0.00 | 0.00 | 0.00 | 36 | 1001.8 |
| 20260505200056 | 23 | 226 | 4.8 | 22.5 | 0.00 | 0.00 | 0.00 | 36 | 1000.1 |
| 20260505200024 | 23 | 243 | 6.4 | 14.5 | 0.00 | 0.00 | 0.00 | 36 | 1001.8 |
| 20260505195520 | 24 | 228 | 6.4 | 17.7 | 0.00 | 0.00 | 0.00 | 35 | 1001.7 |
| 20260505195018 | 24 | 235 | 8.0 | 14.5 | 0.00 | 0.00 | 0.00 | 37 | 1001.8 |
| 20260505194515 | 24 | 225 | 12.9 | 14.5 | 0.00 | 0.00 | 0.00 | 38 | 1001.8 |
| 20260505194010 | 24 | 247 | 16.1 | 32.2 | 0.00 | 0.00 | 0.00 | 35 | 1001.6 |
| 20260505193508 | 24 | 235 | 16.1 | 20.9 | 0.00 | 0.00 | 0.00 | 33 | 1001.7 |
| 20260505193056 | 25 | 225 | 6.4 | 32.2 | 0.00 | 0.00 | 0.00 | 33 | 1000.0 |
| 20260505193005 | 25 | 252 | 4.8 | 20.9 | 0.00 | 0.00 | 0.00 | 34 | 1001.7 |
| 20260505192503 | 25 | 225 | 11.3 | 19.3 | 0.00 | 0.00 | 0.00 | 34 | 1001.7 |
| 20260505192000 | 26 | 45 | 4.8 | 35.4 | 0.00 | 0.00 | 0.00 | 32 | 1001.6 |
| 20260505191556 | 25 | 225 | 4.8 | 20.9 | 0.00 | 0.00 | 0.00 | 33 | 1000.0 |
| 20260505191459 | 25 | 287 | 3.2 | 17.7 | 0.00 | 0.00 | 0.00 | 34 | 1001.7 |
| 20260505190956 | 25 | 249 | 8.0 | 24.1 | 0.00 | 0.00 | 0.00 | 35 | 1001.8 |
| 20260505190450 | 25 | 251 | 8.0 | 12.9 | 0.00 | 0.00 | 0.00 | 35 | 1001.7 |
| 20260505190055 | 25 | 237 | 9.7 | 20.9 | 0.00 | 0.00 | 0.00 | 33 | 1000.1 |
| 20260505185946 | 25 | 225 | 12.9 | 16.1 | 0.00 | 0.00 | 0.00 | 33 | 1001.9 |
| 20260505185444 | 25 | 229 | 12.9 | 19.3 | 0.00 | 0.00 | 0.00 | 36 | 1002.0 |
| 20260505184940 | 26 | 276 | 4.8 | 20.9 | 0.00 | 0.00 | 0.00 | 35 | 1002.3 |
| 20260505184555 | 25 | 214 | 4.8 | 29.0 | 0.00 | 0.00 | 0.00 | 36 | 1000.5 |
| 20260505184437 | 25 | 252 | 4.8 | 12.9 | 0.00 | 0.00 | 0.00 | 37 | 1002.5 |
| 20260505183933 | 25 | 200 | 8.0 | 24.1 | 0.00 | 0.00 | 0.00 | 36 | 1002.5 |
| 20260505183430 | 25 | 233 | 9.7 | 14.5 | 0.00 | 0.00 | 0.00 | 36 | 1002.3 |
| 20260505182927 | 24 | 322 | 3.2 | 17.7 | 0.00 | 0.00 | 0.00 | 38 | 1002.3 |
| 20260505182424 | 24 | 239 | 8.0 | 22.5 | 0.00 | 0.00 | 0.00 | 35 | 1002.5 |
| 20260505181920 | 25 | 235 | 8.0 | 14.5 | 0.00 | 0.00 | 0.00 | 37 | 1002.6 |
| 20260505181556 | 25 | 232 | 6.4 | 22.5 | 0.00 | 0.00 | 0.00 | 34 | 1000.7 |
| 20260505181418 | 25 | 337 | 3.2 | 17.7 | 0.00 | 0.00 | 0.00 | 35 | 1002.5 |
| 20260505180914 | 26 | 230 | 17.7 | 20.9 | 0.00 | 0.00 | 0.00 | 35 | 1002.7 |
| 20260505180411 | 25 | 245 | 6.4 | 16.1 | 0.00 | 0.00 | 0.00 | 38 | 1002.4 |
| 20260505180055 | 25 | 223 | 6.4 | 22.5 | 0.00 | 0.00 | 0.00 | 34 | 1000.9 |
| 20260505175908 | 25 | 228 | 14.5 | 19.3 | 0.00 | 0.00 | 0.00 | 34 | 1002.6 |
| 20260505175404 | 25 | 244 | 9.7 | 20.9 | 0.00 | 0.00 | 0.00 | 34 | 1002.8 |
| 20260505174900 | 25 | 216 | 11.3 | 19.3 | 0.00 | 0.00 | 0.00 | 34 | 1002.9 |
| 20260505174358 | 25 | 256 | 8.0 | 22.5 | 0.00 | 0.00 | 0.00 | 33 | 1003.0 |
| 20260505173854 | 25 | 224 | 9.7 | 22.5 | 0.00 | 0.00 | 0.00 | 36 | 1003.1 |
| 20260505173350 | 25 | 230 | 17.7 | 22.5 | 0.00 | 0.00 | 0.00 | 35 | 1003.1 |
| 20260505172847 | 25 | 233 | 14.5 | 16.1 | 0.00 | 0.00 | 0.00 | 36 | 1003.0 |
| 20260505172345 | 25 | 230 | 8.0 | 19.3 | 0.00 | 0.00 | 0.00 | 33 | 1002.9 |
| 20260505171844 | 25 | 269 | 9.7 | 11.3 | 0.00 | 0.00 | 0.00 | 38 | 1002.9 |
| 20260505171342 | 25 | 258 | 4.8 | 8.0 | 0.00 | 0.00 | 0.00 | 39 | 1002.6 |
| 20260505170838 | 25 | 7 | 1.6 | 8.0 | 0.00 | 0.00 | 0.00 | 36 | 1002.7 |
| 20260505170335 | 25 | 315 | 1.6 | 8.0 | 0.00 | 0.00 | 0.00 | 36 | 1002.9 |
| 20260505170056 | 25 | 241 | 4.8 | 24.1 | 0.00 | 0.00 | 0.00 | 41 | 1001.2 |
| 20260505165830 | 25 | 255 | 1.6 | 16.1 | 0.00 | 0.00 | 0.00 | 36 | 1003.1 |
| 20260505165326 | 25 | 252 | 11.3 | 30.6 | 0.00 | 0.00 | 0.00 | 39 | 1003.2 |
| 20260505164822 | 25 | 253 | 3.2 | 11.3 | 0.00 | 0.00 | 0.00 | 37 | 1002.9 |
| 20260505164555 | 25 | 220 | 6.4 | 14.5 | 0.00 | 0.00 | 0.00 | 36 | 1001.4 |
| 20260505164319 | 25 | 227 | 12.9 | 16.1 | 0.00 | 0.00 | 0.00 | 37 | 1003.3 |
| 20260505163817 | 25 | 221 | 9.7 | 9.7 | 0.00 | 0.00 | 0.00 | 39 | 1003.3 |
| 20260505163316 | 25 | 232 | 3.2 | 9.7 | 0.00 | 0.00 | 0.00 | 36 | 1003.5 |
| 20260505163055 | 24 | 221 | 4.8 | 29.0 | 0.00 | 0.00 | 0.00 | 38 | 1001.7 |
| 20260505162814 | 25 | 224 | 9.7 | 17.7 | 0.00 | 0.00 | 0.00 | 35 | 1003.5 |
| 20260505162310 | 25 | 236 | 6.4 | 20.9 | 0.00 | 0.00 | 0.00 | 41 | 1003.7 |
| 20260505161807 | 24 | 67 | 3.2 | 9.7 | 0.00 | 0.00 | 0.00 | 40 | 1003.5 |
| 20260505161555 | 24 | 223 | 4.8 | 20.9 | 0.00 | 0.00 | 0.00 | 41 | 1001.8 |
| 20260505161304 | 24 | 37 | 3.2 | 12.9 | 0.00 | 0.00 | 0.00 | 38 | 1003.7 |
| 20260505160801 | 24 | 260 | 6.4 | 16.1 | 0.00 | 0.00 | 0.00 | 40 | 1003.4 |
| 20260505160259 | 25 | 309 | 1.6 | 4.8 | 0.00 | 0.00 | 0.00 | 38 | 1003.7 |
| 20260505153238 | 23 | 188 | 3.2 | 9.7 | 0.00 | 0.00 | 0.00 | 40 | 1004.1 |
| 20260505152736 | 23 | 234 | 0.0 | 25.7 | 0.00 | 0.00 | 0.00 | 41 | 1004.0 |
| 20260505152232 | 23 | 228 | 6.4 | 11.3 | 0.00 | 0.00 | 0.00 | 46 | 1004.1 |
| 20260505151731 | 23 | 247 | 6.4 | 22.5 | 0.00 | 0.00 | 0.00 | 43 | 1004.2 |
| 20260505151229 | 23 | 20 | 0.0 | 14.5 | 0.00 | 0.00 | 0.00 | 42 | 1004.1 |
| 20260505150726 | 22 | 273 | 6.4 | 19.3 | 0.00 | 0.00 | 0.00 | 44 | 1004.4 |
| 20260505150223 | 22 | 256 | 3.2 | 9.7 | 0.00 | 0.00 | 0.00 | 47 | 1004.2 |
| 20260505140154 | 21 | 306 | 1.6 | 17.7 | 0.00 | 0.00 | 0.00 | 47 | 1004.3 |
| 20260505130118 | 18 | 247 | 0.0 | 9.7 | 0.00 | 0.00 | 0.00 | 51 | 1005.3 |
| 20260505124607 | 18 | 233 | 16.1 | 17.7 | 0.00 | 0.00 | 0.00 | 51 | 1005.0 |
| 20260505124103 | 18 | 260 | 4.8 | 20.9 | 0.00 | 0.00 | 0.00 | 51 | 1004.9 |
| 20260505123559 | 18 | 235 | 11.3 | 19.3 | 0.00 | 0.00 | 0.00 | 50 | 1005.0 |
| 20260505123056 | 18 | 228 | 9.7 | 17.7 | 0.00 | 0.00 | 0.00 | 49 | 1004.9 |
| 20260505122553 | 18 | 257 | 4.8 | 11.3 | 0.00 | 0.00 | 0.00 | 51 | 1004.8 |
| 20260505122050 | 17 | 242 | 11.3 | 12.9 | 0.00 | 0.00 | 0.00 | 52 | 1004.8 |
| 20260505121555 | 17 | 228 | 4.8 | 14.5 | 0.00 | 0.00 | 0.00 | 53 | 1003.2 |
| 20260505121546 | 17 | 218 | 6.4 | 8.0 | 0.00 | 0.00 | 0.00 | 52 | 1004.7 |
| 20260505121043 | 17 | 224 | 6.4 | 8.0 | 0.00 | 0.00 | 0.00 | 54 | 1004.9 |
| 20260505120540 | 17 | 250 | 6.4 | 17.7 | 0.00 | 0.00 | 0.00 | 52 | 1004.6 |
| 20260505120055 | 17 | 234 | 4.8 | 9.7 | 0.00 | 0.00 | 0.00 | 55 | 1003.0 |
| 20260505120035 | 17 | 228 | 8.0 | 9.7 | 0.00 | 0.00 | 0.00 | 53 | 1004.5 |
| 20260505115530 | 17 | 253 | 4.8 | 9.7 | 0.00 | 0.00 | 0.00 | 53 | 1004.5 |
| 20260505115028 | 17 | 253 | 4.8 | 16.1 | 0.00 | 0.00 | 0.00 | 53 | 1004.7 |
| 20260505114555 | 17 | 221 | 4.8 | 19.3 | 0.00 | 0.00 | 0.00 | 54 | 1003.0 |
| 20260505114525 | 17 | 252 | 6.4 | 11.3 | 0.00 | 0.00 | 0.00 | 53 | 1004.5 |
| 20260505114021 | 17 | 240 | 3.2 | 19.3 | 0.00 | 0.00 | 0.00 | 51 | 1004.7 |
| 20260505113518 | 17 | 241 | 9.7 | 12.9 | 0.00 | 0.00 | 0.00 | 53 | 1004.8 |
| 20260505113057 | 17 | 240 | 3.2 | 16.1 | 0.00 | 0.00 | 0.00 | 55 | 1003.0 |
| 20260505113014 | 17 | 224 | 6.4 | 8.0 | 0.00 | 0.00 | 0.00 | 54 | 1004.7 |
| 20260505112510 | 17 | 129 | 0.0 | 8.0 | 0.00 | 0.00 | 0.00 | 53 | 1004.8 |
| 20260505112009 | 17 | 228 | 6.4 | 8.0 | 0.00 | 0.00 | 0.00 | 54 | 1004.7 |
| 20260505111556 | 16 | 229 | 4.8 | 14.5 | 0.00 | 0.00 | 0.00 | 56 | 1002.9 |
| 20260505111508 | 16 | 230 | 8.0 | 12.9 | 0.00 | 0.00 | 0.00 | 54 | 1004.7 |
| 20260505111004 | 16 | 240 | 9.7 | 11.3 | 0.00 | 0.00 | 0.00 | 53 | 1004.6 |
| 20260505110501 | 16 | 312 | 3.2 | 8.0 | 0.00 | 0.00 | 0.00 | 55 | 1004.4 |
| 20260505101933 | 15 | 353 | 0.0 | 9.7 | 0.00 | 0.00 | 0.00 | 55 | 1004.2 |
| 20260505101554 | 15 | 232 | 4.8 | 19.3 | 0.00 | 0.00 | 0.00 | 56 | 1002.5 |
| 20260505101432 | 15 | 228 | 1.6 | 8.0 | 0.00 | 0.00 | 0.00 | 55 | 1004.0 |
| 20260505100928 | 15 | 217 | 3.2 | 14.5 | 0.00 | 0.00 | 0.00 | 55 | 1003.9 |
| 20260505100425 | 15 | 246 | 11.3 | 19.3 | 0.00 | 0.00 | 0.00 | 55 | 1004.0 |
| 20260505100056 | 15 | 228 | 6.4 | 16.1 | 0.00 | 0.00 | 0.00 | 57 | 1002.4 |
| 20260505095921 | 15 | 237 | 9.7 | 14.5 | 0.00 | 0.00 | 0.00 | 55 | 1003.9 |
| 20260505095418 | 15 | 243 | 11.3 | 12.9 | 0.00 | 0.00 | 0.00 | 55 | 1004.0 |
| 20260505094914 | 15 | 254 | 4.8 | 11.3 | 0.00 | 0.00 | 0.00 | 55 | 1003.8 |
| 20260505094555 | 15 | 231 | 4.8 | 19.3 | 0.00 | 0.00 | 0.00 | 57 | 1002.2 |
| 20260505094412 | 15 | 231 | 3.2 | 14.5 | 0.00 | 0.00 | 0.00 | 55 | 1003.7 |
| 20260505093907 | 15 | 226 | 4.8 | 19.3 | 0.00 | 0.00 | 0.00 | 55 | 1004.0 |
| 20260505093404 | 15 | 207 | 4.8 | 20.9 | 0.00 | 0.00 | 0.00 | 54 | 1003.7 |
| 20260505093056 | 15 | 217 | 9.7 | 19.3 | 0.00 | 0.00 | 0.00 | 56 | 1002.2 |
| 20260505092902 | 15 | 216 | 9.7 | 19.3 | 0.00 | 0.00 | 0.00 | 55 | 1003.9 |